{"data":{"norad_id":51718,"intl_designator":"2022-016E","name":"STARLINK-3546","alt_names":[],"object_type":"PAYLOAD","status":"ACTIVE","operator":null,"country":"US","launch_date":"2022-02-21","launch_site_code":"AFETR","launch_vehicle":null,"mission":null,"orbit_class":"UNKNOWN","rcs_meters":null,"size_class":null,"mass_kg":null,"dimensions":null,"purposes":["comms"],"wikipedia_slug":null,"has_3d_model":false,"image_url":null,"decayed_at":null,"tle_current":{"epoch":"2026-05-24T23:00:51.513120Z","epoch_age_seconds":72521,"freshness":"FRESH","line1":"1 51718U 22016E   26144.95892955  .00023519  00000+0  11340-2 0  9992","line2":"2 51718  53.2156 339.6545 0003877 133.4571 226.6748 15.18616818236168","mean_motion":15.18616818,"eccentricity":0.0003877,"inclination_deg":53.2156,"raan_deg":339.6545,"arg_perigee_deg":133.4571,"mean_anomaly_deg":226.6748,"bstar":0.001134,"rev_number":23616,"period_min":94.823130030686,"perigee_km":507.34947016842,"apogee_km":512.69054711292,"semimajor_km":6888.1570086407,"source":"CELESTRAK","updated_at":"2026-05-25T13:38:16.920502Z"}}}